1499652000.38,17904,18.63,74308.5,7.65,3.41,3.49,0,*7A
1499652001.61,17905,18.63,74314.5,7.63,3.37,3.41,0,*74
1499652002.82,17906,18.56,74310.8,7.63,3.53,3.53,0,*76
1499652003.99,17907,18.56,74304.5,7.63,3.59,3.59,0,*77
1499652005.19,17908,18.56,74310.0,7.63,3.53,3.59,0,*72
1499652006.36,17909,18.56,74306.8,7.63,3.59,3.59,0,*79
1499652007.55,17910,18.56,74310.3,7.63,3.53,3.59,0,*7B
1499652008.75,17911,18.63,74312.3,7.61,3.55,3.59,0,*7E
1499652009.92,17912,18.56,74304.5,7.63,3.59,3.59,0,*73
1499652011.09,17913,18.56,74300.8,7.63,3.59,3.59,0,*72
1499652012.29,17914,18.56,74300.0,7.63,3.53,3.59,0,*7F
1499652013.48,17915,18.56,74302.0,7.63,3.49,3.59,0,*75
1499652014.65,17916,18.63,74304.3,7.63,3.59,3.59,0,*77
1499652015.83,17917,18.56,74306.5,7.63,3.59,3.59,0,*76
1499652017.0,17918,18.56,74304.5,7.63,3.59,3.59,0,*79
1499652018.2,17919,18.56,74306.0,7.65,3.59,3.59,0,*7E
1499652019.37,17920,18.63,74306.0,7.63,3.59,3.59,0,*72
1499652020.54,17921,18.56,74302.5,7.63,3.59,3.63,0,*7A
1499652021.73,17922,18.56,74304.5,7.63,3.53,3.59,0,*7A
1499652022.9,17923,18.56,74304.5,7.63,3.59,3.63,0,*78
1499652024.07,17924,18.63,74310.3,7.63,3.59,3.63,0,*7F
1499652025.25,17925,18.63,74310.3,7.63,3.59,3.59,0,*77
1499652026.44,17926,18.63,74310.3,7.65,3.59,3.59,0,*72
1499652027.61,17927,18.63,74308.5,7.63,3.59,3.59,0,*75
1499652028.79,17928,18.63,74310.5,7.63,3.59,3.63,0,*73
1499652029.96,17929,18.56,74304.5,7.63,3.63,3.63,0,*7B
1499652031.13,17930,18.56,74308.3,7.63,3.59,3.59,0,*73
1499652032.32,17931,18.63,74310.3,7.63,3.53,3.59,0,*78
1499652033.49,17932,18.56,74308.8,7.63,3.59,3.59,0,*71
1499652034.69,17933,18.63,74312.0,7.63,3.53,3.63,0,*73
1499652035.86,17934,18.63,74308.8,7.63,3.59,3.59,0,*77
1499652037.03,17935,18.56,74304.8,7.63,3.59,3.63,0,*7F
1499652038.23,17936,18.56,74308.5,7.65,3.59,3.63,0,*7A
1499652039.42,17937,18.56,74306.3,7.65,3.59,3.59,0,*72
1499652040.64,17938,18.56,74306.8,7.65,3.53,3.59,0,*77
1499652041.82,17939,18.63,74306.8,7.63,3.59,3.59,0,*7A
1499652042.99,17940,18.63,74308.8,7.63,3.59,3.63,0,*7D
1499652044.18,17941,18.56,74304.0,7.63,3.53,3.59,0,*7F
1499652045.38,17942,18.63,74310.3,7.63,3.63,3.71,0,*75
1499652046.63,17943,18.56,74306.5,7.65,3.71,3.71,0,*71
1499652047.89,17944,18.63,74304.5,7.65,3.71,3.71,0,*76
1499652049.12,17945,18.56,74304.3,7.63,3.71,3.75,0,*75
1499652050.34,17946,18.63,74302.5,7.65,3.71,3.59,0,*7E
1499652051.59,17947,18.56,74302.0,7.65,3.53,3.53,0,*75
1499652052.84,17948,18.56,74302.3,7.65,3.49,3.49,0,*7A
1499652054.09,17949,18.56,74302.3,7.65,3.41,3.53,0,*78
1499652055.3,17950,18.56,74304.5,7.63,3.49,3.53,0,*7E
1499652056.5,17951,18.56,74304.0,7.63,3.59,3.53,0,*7E
1499652057.7,17952,18.63,74308.0,7.63,3.59,3.49,0,*76
1499652058.89,17953,18.63,74306.5,7.63,3.59,3.53,0,*7C
1499652060.09,17954,18.56,74308.0,7.63,3.59,3.53,0,*7B
1499652061.26,17955,18.56,74302.5,7.63,3.59,3.63,0,*79
1499652062.46,17956,18.56,74304.0,7.63,3.71,3.63,0,*70
1499652063.66,17957,18.56,74304.8,7.63,3.71,3.59,0,*78
1499652064.83,17958,18.63,74308.8,7.63,3.63,3.59,0,*74
1499652066.0,17959,18.56,74306.0,7.63,3.59,3.59,0,*7C
1499652067.17,17960,18.63,74308.3,7.63,3.63,3.63,0,*76
1499652068.37,17961,18.63,74306.8,7.63,3.63,3.71,0,*74
1499652069.54,17962,18.56,74304.3,7.63,3.63,3.59,0,*7D
1499652070.76,17963,18.56,74300.5,7.65,3.53,3.59,0,*79
1499652071.93,17964,18.63,74308.0,7.63,3.59,3.59,0,*72
1499652073.13,17965,18.63,74306.3,7.61,3.55,3.55,0,*71
1499652074.3,17966,18.56,74302.8,7.63,3.59,3.59,0,*70
1499652075.5,17967,18.56,74304.0,7.63,3.59,3.49,0,*70
1499652076.67,17968,18.56,74304.5,7.63,3.63,3.63,0,*7E
1499652077.84,17969,18.56,74304.3,7.63,3.63,3.59,0,*76
1499652079.01,17970,18.56,74304.0,7.63,3.63,3.63,0,*77
1499652080.19,17971,18.56,74304.8,7.63,3.63,3.59,0,*7F
1499652081.36,17972,18.56,74304.8,7.63,3.63,3.59,0,*7C
1499652082.55,17973,18.56,74304.8,7.65,3.63,3.59,0,*7B
1499652083.75,17974,18.56,74306.8,7.65,3.63,3.59,0,*7C
1499652084.92,17975,18.56,74304.8,7.63,3.59,3.59,0,*72
1499652086.12,17976,18.63,74306.5,7.63,3.59,3.53,0,*7B
1499652087.34,17977,18.56,74306.0,7.65,3.59,3.53,0,*7C
1499652088.56,17978,18.56,74306.5,7.63,3.53,3.53,0,*7F
1499652089.8,17979,18.56,74304.5,7.65,3.53,3.53,0,*78
1499652091.02,17980,18.63,74306.8,7.65,3.59,3.53,0,*74
1499652092.21,17981,18.56,74308.0,7.63,3.59,3.53,0,*73
1499652093.44,17982,18.56,74308.8,7.65,3.59,3.53,0,*76
1499652094.61,17983,18.56,74310.5,7.63,3.59,3.59,0,*7B
1499652095.83,17984,18.56,74310.5,7.65,3.71,3.63,0,*79
1499652097.03,17985,18.56,74304.5,7.63,3.71,3.63,0,*7E
1499652098.26,17986,18.56,74302.8,7.65,3.71,3.63,0,*7B
1499652099.43,17987,18.56,74306.8,7.63,3.63,3.59,0,*76
1499652100.66,17988,18.56,74304.3,7.63,3.71,3.71,0,*70
1499652101.88,17989,18.63,74308.0,7.65,3.71,3.63,0,*74
1499652103.05,17990,18.56,74304.5,7.63,3.63,3.63,0,*79
1499652104.25,17991,18.56,74306.5,7.65,3.63,3.59,0,*77
1499652105.45,17992,18.56,74306.0,7.65,3.63,3.59,0,*74
1499652106.64,17993,18.56,74306.8,7.65,3.63,3.59,0,*75
1499652107.87,17994,18.56,74308.3,7.65,3.71,3.59,0,*71
1499652109.07,17995,18.56,74308.3,7.65,3.63,3.59,0,*73
1499652110.26,17996,18.63,74310.5,7.65,3.59,3.63,0,*70
1499652111.44,17997,18.56,74310.3,7.63,3.63,3.63,0,*7E
1499652112.63,17998,18.56,74308.3,7.65,3.63,3.59,0,*7E
1499652113.83,17999,18.56,74308.8,7.65,3.59,3.59,0,*76
1499652115.03,18000,18.56,74310.5,7.65,3.63,3.59,0,*79
1499652116.23,18001,18.56,74308.5,7.63,3.71,3.59,0,*7D
1499652117.42,18002,18.56,74308.8,7.65,3.63,3.63,0,*72
1499652118.65,18003,18.56,74306.8,7.65,3.63,3.71,0,*70
1499652119.9,18004,18.56,74306.3,7.65,3.71,3.75,0,*70
1499652121.13,18005,18.63,74310.8,7.63,3.71,3.71,0,*73
1499652122.33,18006,18.63,74312.5,7.65,3.63,3.63,0,*76
1499652123.55,18007,18.63,74308.3,7.65,3.71,3.63,0,*74
1499652124.78,18008,18.56,74304.0,7.65,3.63,3.75,0,*7F
1499652126.01,18009,18.56,74308.5,7.63,3.71,3.75,0,*7B
1499652127.26,18010,18.63,74312.3,7.65,3.71,3.75,0,*75
1499652128.47,18011,18.56,74312.5,7.63,3.71,3.81,0,*79
1499652129.67,18012,18.56,74310.5,7.63,3.71,3.85,0,*7E
1499652130.87,18013,18.56,74318.5,7.65,3.81,3.85,0,*76
1499652132.06,18014,18.56,74316.8,7.63,3.71,3.85,0,*78
1499652133.26,18015,18.56,74312.0,7.63,3.81,3.97,0,*75
1499652134.47,18016,18.56,74318.0,7.65,3.85,4.07,0,*7A
1499652135.69,18017,18.63,74316.5,7.65,3.93,4.01,0,*7A
1499652136.87,18018,18.63,74314.8,7.63,3.93,4.07,0,*75
1499652138.07,18019,18.63,74314.8,7.63,3.97,4.07,0,*70
1499652139.3,18020,18.56,74310.5,7.65,3.97,4.07,0,*7C
1499652140.52,18021,18.56,74314.0,7.65,3.97,4.19,0,*72
1499652141.74,18022,18.56,74308.5,7.65,3.97,4.11,0,*79
1499652142.96,18023,18.56,74314.5,7.65,3.93,4.01,0,*7D
1499652144.17,18024,18.63,74312.8,7.65,3.85,3.93,0,*71
1499652145.37,18025,18.56,74308.3,7.67,3.89,4.01,0,*72
1499652146.57,18026,18.56,74314.0,7.67,3.89,3.97,0,*79
1499652147.75,18027,18.56,74308.8,7.71,3.93,3.93,0,*70
1499652148.95,18028,18.56,74308.3,7.71,4.01,3.93,0,*73
1499652150.12,18029,18.63,74312.3,7.67,3.89,3.85,0,*75
1499652151.33,18030,18.56,74310.5,7.71,3.89,4.01,0,*71
1499652152.51,18031,18.56,74306.8,7.71,3.89,3.89,0,*77
1499652153.68,18032,18.56,74308.3,7.67,3.85,3.85,0,*73
1499652154.85,18033,18.63,74308.5,7.67,3.85,3.85,0,*72
1499652156.03,18034,18.63,74308.8,7.71,3.89,3.89,0,*72
1499652157.23,18035,18.56,74306.3,7.67,3.85,3.79,0,*77
1499652158.42,18036,18.56,74304.3,7.67,3.85,3.79,0,*74
1499652159.63,18037,18.56,74306.8,7.67,3.89,3.79,0,*79
1499652160.85,18038,18.56,74306.0,7.67,3.79,3.75,0,*75
1499652162.05,18039,18.63,74310.3,7.71,3.81,3.71,0,*70
1499652163.25,18040,18.56,74306.8,7.71,3.81,3.79,0,*76
1499652164.45,18041,18.56,74306.3,7.71,3.81,3.79,0,*77
1499652165.65,18042,18.56,74300.5,7.71,3.81,3.71,0,*7C
1499652166.85,18043,18.56,74300.3,7.71,3.81,3.71,0,*7D
1499652168.05,18044,18.56,74300.0,7.71,3.81,3.71,0,*7A
1499652169.26,18045,18.56,74302.5,7.71,3.89,3.71,0,*73
1499652170.46,18046,18.56,74302.5,7.71,3.81,3.71,0,*78
1499652171.69,18047,18.56,74302.0,7.71,3.71,3.71,0,*76
1499652172.91,18048,18.56,74302.3,7.73,3.81,3.67,0,*73
1499652174.11,18049,18.56,74304.0,7.71,3.81,3.67,0,*70
1499652175.33,18050,18.56,74302.8,7.71,3.71,3.67,0,*77
1499652176.56,18051,18.56,74302.0,7.71,3.79,3.67,0,*7E
1499652177.76,18052,18.56,74300.0,7.71,3.81,3.67,0,*7A
1499652178.98,18053,18.56,74296.5,7.73,3.71,3.59,0,*7B
1499652180.23,18054,18.56,74300.3,7.73,3.79,3.67,0,*79
1499652181.43,18055,18.56,74302.3,7.71,3.79,3.59,0,*77
1499652182.63,18056,18.56,74300.3,7.71,3.71,3.59,0,*7C
1499652183.85,18057,18.56,74302.8,7.73,3.79,3.59,0,*77
1499652185.1,18058,18.56,74300.0,7.73,3.71,3.49,0,*71
1499652186.36,18059,18.56,74300.3,7.73,3.67,3.49,0,*77
1499652187.58,18060,18.56,74302.5,7.73,3.67,3.55,0,*70
1499652188.81,18061,18.56,74298.0,7.73,3.67,3.55,0,*71
1499652190.06,18062,18.56,74302.8,7.73,3.67,3.49,0,*7F
1499652191.26,18063,18.56,74298.0,7.71,3.59,3.33,0,*7C
1499652192.49,18064,18.56,74300.5,7.73,3.59,3.37,0,*7D
1499652193.68,18065,18.56,74300.8,7.71,3.55,3.37,0,*72
1499652194.9,18066,18.56,74304.3,7.71,3.49,3.45,0,*79
1499652196.1,18067,18.56,74300.5,7.71,3.59,3.49,0,*75
1499652197.33,18068,18.56,74300.3,7.73,3.79,3.59,0,*7B
1499652198.55,18069,18.56,74306.3,7.73,3.71,3.55,0,*7E
1499652199.75,18070,18.56,74300.8,7.67,3.63,3.41,0,*75
1499652201.01,18071,18.56,74300.5,7.73,3.67,3.49,0,*7D
1499652202.24,18072,18.56,74302.5,7.71,3.71,3.49,0,*7B
1499652203.47,18073,18.56,74298.0,7.71,3.71,3.49,0,*7A
1499652204.67,18074,18.56,74300.0,7.71,3.59,3.45,0,*7B
1499652205.87,18075,18.56,74302.3,7.67,3.63,3.41,0,*70
1499652207.07,18076,18.56,74302.0,7.71,3.63,3.45,0,*70
1499652208.27,18077,18.56,74300.5,7.71,3.59,3.37,0,*7D
1499652209.49,18078,18.56,74300.5,7.71,3.49,3.33,0,*77
1499652210.69,18079,18.56,74302.8,7.71,3.59,3.37,0,*73
1499652211.89,18080,18.56,74302.0,7.67,3.63,3.45,0,*7E
1499652213.09,18081,18.56,74300.0,7.67,3.63,3.45,0,*7F
1499652214.29,18082,18.63,74306.3,7.71,3.55,3.41,0,*7A
1499652215.52,18083,18.56,74306.5,7.71,3.67,3.49,0,*72
1499652216.76,18084,18.56,74302.0,7.71,3.67,3.49,0,*75
1499652217.96,18085,18.56,74304.5,7.71,3.79,3.59,0,*7A
1499652219.16,18086,18.56,74302.3,7.71,3.79,3.59,0,*79
1499652220.36,18087,18.56,74300.3,7.71,3.71,3.59,0,*70
1499652221.56,18088,18.56,74296.8,7.71,3.79,3.59,0,*77
1499652222.76,18089,18.56,74298.3,7.67,3.75,3.55,0,*71
1499652223.96,18090,18.56,74296.0,7.71,3.71,3.59,0,*76
1499652225.16,18091,18.56,74306.3,7.71,3.71,3.59,0,*77
1499652226.39,18092,18.56,74304.5,7.71,3.71,3.49,0,*75
1499652227.59,18093,18.56,74302.8,7.71,3.71,3.55,0,*79
1499652228.78,18094,18.56,74300.0,7.71,3.79,3.55,0,*76
1499652230.02,18095,18.56,74304.5,7.67,3.67,3.41,0,*7A
1499652231.22,18096,18.56,74302.8,7.71,3.79,3.55,0,*74
1499652232.42,18097,18.56,74302.8,7.71,3.71,3.55,0,*7D
1499652233.62,18098,18.56,74298.8,7.71,3.71,3.55,0,*72
1499652234.82,18099,18.56,74302.0,7.67,3.71,3.59,0,*78
1499652236.01,18100,18.56,74302.3,7.71,3.71,3.55,0,*72
1499652237.25,18101,18.56,74298.3,7.67,3.67,3.45,0,*72
1499652238.48,18102,18.56,74300.0,7.67,3.67,3.45,0,*71
1499652239.71,18103,18.56,74300.3,7.71,3.71,3.49,0,*7C
1499652240.94,18104,18.56,74296.8,7.71,3.71,3.49,0,*7B
1499652242.17,18105,18.56,74300.8,7.71,3.71,3.49,0,*7A
1499652243.4,18106,18.63,74304.0,7.71,3.71,3.49,0,*79
1499652244.62,18107,18.56,74300.3,7.71,3.79,3.49,0,*70
1499652245.85,18108,18.56,74302.5,7.71,3.71,3.49,0,*77
1499652247.08,18109,18.56,74300.5,7.71,3.71,3.49,0,*76
1499652248.31,18110,18.56,74298.0,7.71,3.71,3.49,0,*7E
1499652249.54,18111,18.56,74306.0,7.71,3.71,3.49,0,*7F
1499652250.77,18112,18.56,74300.8,7.67,3.67,3.45,0,*70
1499652252.0,18113,18.56,74300.0,7.71,3.79,3.49,0,*75
1499652253.23,18114,18.56,74302.5,7.71,3.71,3.49,0,*7A
1499652254.46,18115,18.63,74304.0,7.71,3.71,3.45,0,*77
1499652255.69,18116,18.56,74302.8,7.71,3.71,3.49,0,*78
1499652256.92,18117,18.56,74302.8,7.71,3.71,3.49,0,*79
1499652258.15,18118,18.56,74302.5,7.71,3.71,3.45,0,*7A
1499652259.38,18119,18.56,74306.3,7.71,3.71,3.45,0,*7B
1499652260.6,18120,18.56,74304.0,7.71,3.71,3.49,0,*7D
1499652261.84,18121,18.56,74300.5,7.67,3.67,3.45,0,*70
1499652263.07,18122,18.56,74300.3,7.71,3.71,3.49,0,*7F
1499652264.3,18123,18.56,74304.8,7.71,3.79,3.45,0,*7A
1499652265.53,18124,18.56,74304.5,7.67,3.67,3.45,0,*75
1499652266.76,18125,18.56,74300.8,7.71,3.71,3.49,0,*78
1499652267.99,18126,18.56,74304.3,7.71,3.71,3.45,0,*77
1499652269.24,18127,18.56,74302.0,7.73,3.71,3.45,0,*74
1499652270.47,18128,18.56,74298.8,7.71,3.71,3.45,0,*79
1499652271.7,18129,18.56,74302.3,7.71,3.71,3.45,0,*78
1499652272.93,18130,18.56,74302.0,7.67,3.75,3.45,0,*73
1499652274.16,18131,18.56,74300.8,7.71,3.71,3.49,0,*7D
1499652275.39,18132,18.56,74302.3,7.71,3.71,3.49,0,*7E
1499652276.62,18133,18.56,74302.5,7.71,3.71,3.49,0,*7F
1499652277.87,18134,18.56,74304.0,7.73,3.79,3.49,0,*72
1499652279.1,18135,18.56,74306.8,7.71,3.79,3.49,0,*71
1499652280.33,18136,18.56,74302.0,7.71,3.79,3.49,0,*72
1499652281.58,18137,18.56,74300.5,7.73,3.79,3.49,0,*71
1499652282.83,18138,18.56,74302.3,7.73,3.71,3.45,0,*7A
1499652284.07,18139,18.56,74304.5,7.67,3.75,3.41,0,*7E
1499652285.3,18140,18.56,74300.3,7.71,3.71,3.45,0,*77
1499652286.55,18141,18.56,74300.5,7.73,3.71,3.45,0,*74
1499652287.78,18142,18.56,74298.8,7.71,3.79,3.49,0,*71
1499652289.01,18143,18.56,74296.5,7.71,3.71,3.49,0,*78
1499652290.24,18144,18.56,74300.8,7.71,3.79,3.49,0,*77
1499652291.47,18145,18.56,74300.3,7.71,3.79,3.49,0,*76
1499652292.7,18146,18.56,74306.3,7.71,3.71,3.49,0,*7D
1499652293.93,18147,18.56,74304.5,7.67,3.71,3.41,0,*73
1499652295.16,18148,18.56,74304.5,7.71,3.71,3.37,0,*7A
1499652296.39,18149,18.56,74304.0,7.71,3.71,3.45,0,*7E
1499652297.62,18150,18.56,74302.5,7.67,3.79,3.41,0,*7D
1499652298.85,18151,18.56,74300.3,7.71,3.79,3.45,0,*7F
1499652300.08,18152,18.56,74302.3,7.67,3.75,3.45,0,*77
1499652301.31,18153,18.56,74300.5,7.71,3.79,3.49,0,*71
1499652302.54,18154,18.56,74300.5,7.71,3.79,3.49,0,*76
1499652303.77,18155,18.56,74300.3,7.71,3.79,3.49,0,*77
1499652305.0,18156,18.56,74304.3,7.71,3.79,3.49,0,*74
1499652306.23,18157,18.56,74304.5,7.71,3.79,3.49,0,*75
1499652307.46,18158,18.56,74306.3,7.71,3.71,3.49,0,*72
1499652308.66,18159,18.56,74304.0,7.71,3.79,3.55,0,*76
1499652309.86,18160,18.56,74306.8,7.71,3.81,3.45,0,*7A
1499652311.09,18161,18.56,74304.0,7.71,3.79,3.49,0,*70
1499652312.34,18162,18.56,74304.0,7.73,3.79,3.49,0,*71
1499652313.59,18163,18.56,74306.0,7.73,3.79,3.49,0,*70
1499652314.84,18164,18.56,74306.3,7.73,3.71,3.49,0,*7F
1499652316.05,18165,18.56,74306.0,7.71,3.79,3.55,0,*79
1499652317.24,18166,18.56,74302.3,7.73,3.81,3.59,0,*73
1499652318.44,18167,18.56,74302.5,7.73,3.81,3.55,0,*7E
1499652319.61,18168,18.56,74302.0,7.71,3.81,3.55,0,*73
1499652320.83,18169,18.56,74306.5,7.67,3.79,3.53,0,*74
1499652322.01,18170,18.56,74306.5,7.71,3.89,3.55,0,*72
1499652323.2,18171,18.56,74304.5,7.71,3.79,3.55,0,*7C
1499652324.38,18172,18.56,74302.5,7.71,3.81,3.55,0,*78
1499652325.57,18173,18.56,74300.8,7.73,3.81,3.55,0,*7B
1499652326.77,18174,18.56,74302.5,7.73,3.89,3.55,0,*74
1499652327.97,18175,18.56,74300.0,7.73,3.81,3.59,0,*71
1499652329.19,18176,18.56,74304.0,7.73,3.81,3.49,0,*73
1499652330.39,18177,18.56,74300.8,7.73,3.81,3.55,0,*7F
1499652331.58,18178,18.56,74304.8,7.73,3.81,3.55,0,*70
1499652332.76,18179,18.56,74306.8,7.71,3.89,3.55,0,*7B
1499652333.93,18180,18.56,74304.0,7.71,3.89,3.59,0,*71
1499652335.11,18181,18.56,74308.8,7.71,3.93,3.55,0,*77
1499652336.28,18182,18.56,74304.5,7.71,3.93,3.55,0,*74
1499652337.46,18183,18.56,74306.3,7.71,3.93,3.59,0,*79
1499652338.66,18184,18.56,74302.0,7.73,3.89,3.55,0,*7B
1499652339.88,18185,18.56,74302.3,7.73,3.81,3.45,0,*73
1499652341.11,18186,18.56,74302.3,7.73,3.81,3.49,0,*7C
1499652342.33,18187,18.56,74302.5,7.73,3.81,3.49,0,*7D
1499652343.59,18188,18.56,74300.5,7.73,3.79,3.45,0,*79
1499652344.84,18189,18.56,74300.8,7.73,3.71,3.49,0,*7C
1499652346.09,18190,18.56,74304.8,7.73,3.71,3.49,0,*74
1499652347.34,18191,18.56,74304.3,7.73,3.79,3.49,0,*7D
1499652348.57,18192,18.56,74306.5,7.73,3.89,3.49,0,*71
1499652349.77,18193,18.56,74308.8,7.73,3.89,3.55,0,*7D
1499652350.97,18194,18.56,74304.3,7.73,3.89,3.59,0,*76
1499652352.17,18195,18.56,74304.3,7.73,3.89,3.55,0,*7B
1499652353.37,18196,18.56,74304.0,7.73,3.93,3.59,0,*7F
1499652354.56,18197,18.56,74306.5,7.71,4.01,3.59,0,*70
1499652355.76,18198,18.56,74302.3,7.71,4.07,3.67,0,*74
1499652357.02,18199,18.56,74306.3,7.73,4.05,3.71,0,*72
1499652358.24,18200,18.56,74304.0,7.73,4.07,3.71,0,*73
1499652359.49,18201,18.56,74300.0,7.73,4.05,3.67,0,*77
1499652360.69,18202,18.56,74300.5,7.75,3.97,3.63,0,*7A
1499652361.91,18203,18.56,74304.5,7.73,4.01,3.59,0,*7C
1499652363.13,18204,18.56,74302.0,7.73,4.01,3.59,0,*7B
1499652364.34,18205,18.56,74304.0,7.73,4.01,3.59,0,*7A
1499652365.54,18206,18.56,74304.8,7.75,3.97,3.63,0,*7E
1499652366.76,18207,18.56,74302.8,7.73,4.01,3.59,0,*78
1499652367.98,18208,18.56,74304.0,7.73,4.07,3.67,0,*7C
1499652369.21,18209,18.56,74306.8,7.75,4.05,3.71,0,*7E
1499652370.41,18210,18.56,74300.8,7.75,4.07,3.71,0,*74
1499652371.66,18211,18.56,74304.8,7.73,4.01,3.67,0,*72
1499652372.9,18212,18.56,74304.0,7.73,4.01,3.71,0,*76
1499652374.13,18213,18.56,74306.3,7.73,4.07,3.67,0,*76
1499652375.33,18214,18.56,74304.0,7.75,4.11,3.71,0,*77
1499652376.53,18215,18.56,74300.3,7.75,4.11,3.71,0,*76
1499652377.74,18216,18.56,74300.0,7.75,4.11,3.75,0,*71
1499652378.94,18217,18.56,74300.0,7.75,4.07,3.75,0,*77
1499652380.14,18218,18.56,74296.3,7.75,4.07,3.75,0,*78
1499652381.35,18219,18.56,74300.0,7.75,4.07,3.71,0,*7D
1499652382.55,18220,18.56,74300.8,7.75,4.11,3.71,0,*70
1499652383.78,18221,18.56,74300.3,7.77,4.11,3.71,0,*73
1499652385.01,18222,18.56,74300.0,7.77,4.11,3.71,0,*70
1499652386.21,18223,18.56,74304.8,7.79,4.15,3.79,0,*73
1499652387.45,18224,18.56,74302.0,7.77,4.11,3.71,0,*76
1499652388.68,18225,18.56,74300.3,7.77,4.11,3.71,0,*77
1499652389.88,18226,18.56,74300.5,7.77,4.11,3.59,0,*7E
1499652391.06,18227,18.56,74298.8,7.79,4.07,3.63,0,*7F
1499652392.25,18228,18.56,74302.3,7.79,3.97,3.63,0,*7E
1499652393.46,18229,18.56,74302.3,7.79,4.07,3.67,0,*75
1499652394.66,18230,18.56,74300.3,7.77,3.93,3.63,0,*7D
1499652395.89,18231,18.56,74300.0,7.77,4.05,3.63,0,*74
1499652397.1,18232,18.56,74296.8,7.81,4.11,3.71,0,*78
1499652398.3,18233,18.56,74302.0,7.79,3.97,3.59,0,*7D
1499652399.49,18234,18.56,74302.3,7.79,4.01,3.63,0,*7B
1499652400.69,18235,18.56,74300.3,7.77,3.93,3.59,0,*71
1499652401.92,18236,18.56,74302.3,7.77,3.85,3.53,0,*7F
1499652403.09,18237,18.56,74302.0,7.79,3.89,3.55,0,*7A
1499652404.29,18238,18.56,74300.5,7.79,3.97,3.55,0,*7A
1499652405.48,18239,18.56,74304.3,7.79,3.97,3.55,0,*7B
1499652406.67,18240,18.56,74304.3,7.81,3.93,3.59,0,*7A
1499652407.84,18241,18.56,74302.8,7.79,3.89,3.55,0,*7B
1499652409.01,18242,18.56,74302.0,7.79,3.89,3.55,0,*78
1499652410.21,18243,18.56,74300.8,7.79,3.97,3.63,0,*73
1499652411.4,18244,18.56,74306.5,7.79,4.01,3.63,0,*7C
1499652412.6,18245,18.56,74310.0,7.79,3.97,3.55,0,*70
1499652413.82,18246,18.56,74306.3,7.79,3.79,3.53,0,*75
1499652415.02,18247,18.56,74304.8,7.79,3.97,3.63,0,*77
1499652416.24,18248,18.56,74302.0,7.79,3.97,3.67,0,*7C
1499652417.41,18249,18.56,74304.3,7.79,3.85,3.55,0,*7F
1499652418.63,18250,18.56,74304.0,7.79,3.79,3.53,0,*72
1499652419.86,18251,18.56,74306.5,7.79,3.79,3.45,0,*74
1499652421.09,18252,18.56,74304.0,7.79,3.79,3.41,0,*73
1499652422.33,18253,18.56,74304.0,7.79,3.79,3.41,0,*72
1499652423.56,18254,18.56,74300.0,7.79,3.79,3.45,0,*71
1499652424.74,18255,18.56,74308.5,7.81,3.93,3.59,0,*7E
1499652425.92,18256,18.56,74302.3,7.81,3.89,3.59,0,*76
1499652427.1,18257,18.56,74302.5,7.81,3.89,3.59,0,*77
1499652428.29,18258,18.56,74304.8,7.81,3.89,3.59,0,*78
1499652429.49,18259,18.56,74302.5,7.83,3.89,3.59,0,*7B
1499652430.67,18260,18.56,74304.0,7.81,3.89,3.59,0,*73
1499652431.85,18261,18.56,74298.8,7.81,3.89,3.55,0,*7E
1499652433.04,18262,18.56,74298.5,7.81,3.89,3.59,0,*71
1499652434.22,18263,18.56,74296.3,7.81,3.89,3.59,0,*70
1499652435.42,18264,18.56,74296.5,7.83,3.89,3.55,0,*79
1499652436.6,18265,18.56,74296.3,7.81,3.81,3.55,0,*72
1499652437.78,18266,18.56,74292.0,7.81,3.81,3.55,0,*71
1499652438.96,18267,18.56,74294.5,7.81,3.89,3.59,0,*74
1499652440.14,18268,18.56,74298.5,7.81,3.81,3.55,0,*7F
1499652441.32,18269,18.56,74294.5,7.81,3.81,3.55,0,*7E
1499652442.5,18270,18.56,74298.0,7.81,3.89,3.55,0,*7E
1499652443.7,18271,18.56,74296.5,7.83,3.81,3.59,0,*79
1499652444.93,18272,18.56,74298.5,7.83,3.81,3.45,0,*77
1499652446.14,18273,18.56,74296.3,7.81,3.81,3.45,0,*74
1499652447.38,18274,18.56,74298.5,7.81,3.71,3.45,0,*7C
1499652448.61,18275,18.56,74298.5,7.81,3.79,3.49,0,*79
1499652449.85,18276,18.56,74296.8,7.81,3.79,3.49,0,*7A
1499652451.04,18277,18.56,74298.0,7.83,3.81,3.55,0,*73
1499652452.25,18278,18.56,74300.3,7.83,3.81,3.59,0,*70
1499652453.42,18279,18.56,74300.5,7.81,3.81,3.55,0,*7F
1499652454.61,18280,18.56,74298.5,7.81,3.89,3.59,0,*7D
1499652455.81,18281,18.56,74298.8,7.83,3.81,3.59,0,*76
1499652456.99,18282,18.56,74296.8,7.81,3.81,3.59,0,*77
1499652458.16,18283,18.56,74296.3,7.81,3.81,3.55,0,*7A
1499652459.36,18284,18.56,74300.5,7.83,3.81,3.55,0,*7F
1499652460.62,18285,18.56,74294.5,7.83,3.79,3.49,0,*74
1499652461.88,18286,18.56,74300.3,7.83,3.71,3.45,0,*73
1499652463.11,18287,18.56,74298.8,7.81,3.71,3.45,0,*70
1499652464.35,18288,18.56,74300.0,7.81,3.67,3.45,0,*78
1499652465.61,18289,18.56,74302.3,7.83,3.71,3.45,0,*7C
1499652466.86,18290,18.56,74302.5,7.83,3.71,3.49,0,*78
1499652468.09,18291,18.56,74300.5,7.83,3.79,3.55,0,*7C
1499652469.32,18292,18.56,74302.8,7.81,3.71,3.49,0,*78
1499652470.57,18293,18.56,74306.5,7.81,3.67,3.41,0,*76
1499652471.8,18294,18.56,74302.8,7.83,3.59,3.41,0,*7E
1499652473.03,18295,18.56,74306.0,7.83,3.59,3.41,0,*7F
1499652474.25,18296,18.56,74304.8,7.83,3.55,3.33,0,*75
1499652475.51,18297,18.56,74306.0,7.83,3.67,3.45,0,*74
1499652476.77,18298,18.56,74302.3,7.83,3.79,3.49,0,*78
1499652478.01,18299,18.56,74308.8,7.81,3.71,3.45,0,*7F
1499652479.27,18300,18.56,74306.8,7.83,3.67,3.45,0,*7B
1499652480.5,18301,18.56,74310.5,7.81,3.79,3.49,0,*7B
1499652481.71,18302,18.56,74304.3,7.81,3.67,3.55,0,*7A
1499652482.94,18303,18.56,74302.5,7.83,3.79,3.59,0,*7A
1499652484.17,18304,18.56,74304.8,7.81,3.79,3.49,0,*7E
1499652485.43,18305,18.56,74300.5,7.83,3.67,3.49,0,*72
1499652486.69,18306,18.56,74302.8,7.83,3.71,3.49,0,*76
1499652487.94,18307,18.56,74300.0,7.83,3.71,3.49,0,*77
1499652489.18,18308,18.56,74308.8,7.81,3.71,3.49,0,*7A
1499652490.38,18309,18.56,74304.8,7.81,3.71,3.55,0,*76
1499652491.61,18310,18.56,74306.8,7.83,3.71,3.55,0,*7C
1499652492.83,18311,18.56,74310.3,7.83,3.71,3.55,0,*7D
1499652494.06,18312,18.56,74304.3,7.83,3.79,3.59,0,*7A
1499652495.27,18313,18.56,74306.8,7.81,3.71,3.59,0,*71
1499652496.52,18314,18.56,74308.3,7.83,3.71,3.67,0,*79
1499652497.77,18315,18.56,74304.8,7.83,3.79,3.67,0,*70
1499652499.03,18316,18.56,74304.3,7.83,3.79,3.71,0,*74
1499652500.28,18317,18.56,74304.3,7.83,3.79,3.67,0,*72
1499652501.54,18318,18.56,74306.3,7.83,3.79,3.71,0,*7A
1499652502.79,18319,18.56,74304.8,7.83,3.79,3.71,0,*7B
1499652504.02,18320,18.56,74304.0,7.83,3.81,3.71,0,*76
1499652505.24,18321,18.56,74300.8,7.83,3.81,3.71,0,*77
1499652506.47,18322,18.56,74304.8,7.83,3.81,3.71,0,*74
1499652507.7,18323,18.56,74300.5,7.83,3.81,3.71,0,*75
1499652508.93,18324,18.56,74300.5,7.83,3.89,3.71,0,*7A
1499652510.14,18325,18.56,74302.3,7.83,3.89,3.81,0,*74
1499652511.34,18326,18.56,74296.8,7.83,3.81,3.81,0,*7F
1499652512.55,18327,18.56,74294.5,7.83,3.89,3.81,0,*76
1499652513.76,18328,18.56,74298.5,7.83,3.89,3.81,0,*79
1499652514.99,18329,18.56,74298.3,7.83,3.81,3.79,0,*77
1499652516.19,18330,18.56,74298.3,7.83,3.89,3.81,0,*70
1499652517.4,18331,18.56,74300.5,7.83,3.89,3.81,0,*71
1499652518.61,18332,18.56,74298.5,7.83,3.89,3.81,0,*72
1499652519.82,18333,18.56,74296.8,7.83,3.89,3.81,0,*73
1499652521.02,18334,18.56,74296.5,7.83,3.93,3.81,0,*7F
1499652522.26,18335,18.56,74300.5,7.83,4.05,3.89,0,*7E
1499652523.45,18336,18.56,74302.3,7.85,4.07,3.93,0,*72
1499652524.66,18337,18.56,74300.5,7.85,4.05,3.93,0,*71
1499652525.87,18338,18.56,74300.3,7.85,4.05,3.81,0,*7D
1499652527.07,18339,18.56,74298.5,7.85,3.97,3.85,0,*74
1499652528.26,18340,18.56,74300.8,7.85,4.07,3.85,0,*74